Craig, CO

8:43 AM MDT on May 25, 2017 (GMT -0600)
Craig-Moffat

Weather History for KCAG - January, 2013

Change the Weather History Date:

Tuesday, January 1, 2013

  Actual Average Record
Temperature  
Mean Temperature -4 °F 15 °F  
Max Temperature 7 °F 29 °F 42 °F (1998)
Min Temperature -15 °F 1 °F -29 °F (2016)
Degree Days  
Heating Degree Days 69 50  
Month to date heating degree days 69 50  
Since 1 July heating degree days 3240 3606  
Cooling Degree Days 0 0  
Month to date cooling degree days 0 0  
Year to date cooling degree days 0 0  
Moisture  
Dew Point -7 °F    
Average Humidity 75    
Maximum Humidity 87    
Minimum Humidity 63    
Precipitation  
Precipitation T in 0.03 in 0.18 in (2006)
Month to date precipitation T 0.03  
Year to date precipitation T 0.03  
Sea Level Pressure  
Sea Level Pressure 30.37 in    
Wind  
Wind Speed 0 mph (WNW)    
Max Wind Speed 5 mph    
Max Gust Speed 6 mph    
Visibility 5 miles    
Events Snow    
T = Trace of Precipitation, MM = Missing Value Source: NWS Daily Summary

Daily Weather History Graph

Daily Weather History Graph

Search for Another Location

Airport or City:

Trip Planner

Search our weather history database for the weather conditions in past years. The results will help you decide how hot, cold, wet, or windy it might be!

Date:

Astronomy

Jan. 01, 2013 Rise Set
Actual Time 7:33 AM MST 4:54 PM MST
Civil Twilight 7:02 AM MST 5:25 PM MST
Nautical Twilight 6:28 AM MST 5:59 PM MST
Astronomical Twilight 5:55 AM MST 6:32 PM MST
Moon 9:29 PM MST (1/1) 9:46 AM MST (1/1)
Length of Visible Light 10h 22m
Length of Day
9h 20m
Waning Gibbous, 83% of the Moon is Illuminated
Jan 1
Waning Gibbous
Jan 4
Last Quarter
Jan 11
New
Jan 18
First Quarter
Jan 26
Full

Hourly Weather History & Observations

Time (MST) Temp. Windchill Dew Point Humidity Pressure Visibility Wind Dir Wind Speed Gust Speed Precip Events Conditions
12:53 AM -11.9 °F - -20.0 °F 67% 30.47 in 9.0 mi Calm Calm - N/A   Overcast
1:13 AM -9.4 °F - -18.4 °F 65% 30.12 in 6.0 mi Calm Calm - N/A   Haze
1:23 AM -9.4 °F - -18.4 °F 65% 30.12 in 4.0 mi Calm Calm - 0.00 in Snow Light Snow
1:53 AM -8.0 °F - -16.1 °F 68% 30.45 in 8.0 mi Calm Calm - 0.00 in   Overcast
2:07 AM -7.6 °F - -16.6 °F 65% 30.13 in 7.0 mi Calm Calm - N/A   Overcast
2:41 AM -7.6 °F - -16.6 °F 65% 30.14 in 6.0 mi Calm Calm - N/A   Haze
2:53 AM -5.1 °F - -13.0 °F 69% 30.48 in 8.0 mi Calm Calm - N/A   Overcast
3:19 AM -4.0 °F - -14.8 °F 60% 30.14 in 2.5 mi Calm Calm - 0.00 in Snow Light Snow
3:53 AM -4.0 °F - -13.0 °F 65% 30.46 in 4.0 mi Calm Calm - 0.00 in Snow Light Snow
4:03 AM -4.0 °F - -13.0 °F 65% 30.14 in 7.0 mi Calm Calm - N/A   Overcast
4:53 AM -2.0 °F -12.2 °F -11.0 °F 66% 30.50 in 4.0 mi NW 4.6 mph - 0.00 in Snow Light Snow
5:01 AM -2.2 °F -10.4 °F -11.2 °F 66% 30.15 in 4.0 mi NW 3.5 mph - 0.00 in Snow Light Snow
5:17 AM -2.2 °F - -11.2 °F 66% 30.14 in 7.0 mi Calm Calm - 0.00 in   Overcast
5:53 AM -2.0 °F - -11.0 °F 66% 30.55 in 7.0 mi Calm Calm - 0.00 in   Overcast
6:14 AM -2.2 °F - -9.4 °F 71% 30.17 in 4.0 mi Calm Calm - 0.00 in Snow Light Snow
6:23 AM -0.4 °F - -9.4 °F 66% 30.17 in 1.8 mi Calm Calm - 0.00 in Snow Light Snow
6:41 AM -0.4 °F - -9.4 °F 66% 30.18 in 2.0 mi Calm Calm - 0.00 in Snow Light Snow
6:49 AM -0.4 °F - -9.4 °F 66% 30.18 in 1.2 mi Calm Calm - 0.00 in Snow Light Snow
6:53 AM -0.0 °F - -8.0 °F 69% 30.56 in 1.2 mi Calm Calm - 0.00 in Snow Light Snow
7:16 AM -0.4 °F - -7.6 °F 72% 30.18 in 2.0 mi Calm Calm - 0.00 in Snow Light Snow
7:44 AM -0.4 °F - -7.6 °F 72% 30.19 in 3.0 mi Calm Calm - 0.00 in   Haze
7:53 AM -0.9 °F - -9.0 °F 69% 30.59 in 3.0 mi Calm Calm - 0.00 in   Haze
8:01 AM -2.2 °F - -9.4 °F 71% 30.20 in 2.0 mi Calm Calm - 0.00 in Snow Light Snow
8:15 AM -2.2 °F - -9.4 °F 71% 30.20 in 4.0 mi Calm Calm - 0.00 in   Haze
8:53 AM -0.9 °F - -8.0 °F 72% 30.62 in 7.0 mi Calm Calm - 0.00 in   Mostly Cloudy
9:05 AM 1.4 °F - -5.8 °F 72% 30.22 in 10.0 mi Calm Calm - N/A   Mostly Cloudy
9:10 AM -0.4 °F - -7.6 °F 72% 30.22 in 9.0 mi Calm Calm - N/A   Mostly Cloudy
9:45 AM -0.4 °F - -7.6 °F 72% 30.23 in 9.0 mi Calm Calm - N/A   Scattered Clouds
9:48 AM -0.4 °F - -7.6 °F 72% 30.23 in 8.0 mi Calm Calm - N/A   Mostly Cloudy
9:51 AM -0.4 °F - -5.8 °F 78% 30.23 in 2.5 mi Calm Calm - N/A   Haze
9:53 AM -0.0 °F - -6.0 °F 76% 30.65 in 2.0 mi Calm Calm - N/A   Haze
10:05 AM -2.2 °F - -7.6 °F 78% 30.24 in 8.0 mi Calm Calm - N/A   Scattered Clouds
10:53 AM -0.0 °F - -6.0 °F 76% 30.66 in 10.0 mi Calm Calm - N/A   Partly Cloudy
11:03 AM 1.4 °F - -5.8 °F 72% 30.24 in 2.5 mi Calm Calm - 0.00 in Snow Light Snow
11:12 AM 1.4 °F - -5.8 °F 72% 30.24 in 1.8 mi Calm Calm - 0.00 in Snow Light Snow
11:44 AM 3.2 °F - -4.0 °F 72% 30.23 in 2.5 mi Calm Calm - 0.00 in Snow Light Snow
11:53 AM 3.9 °F - -4.0 °F 70% 30.63 in 2.5 mi Calm Calm - 0.00 in Snow Light Snow
12:04 PM 6.8 °F - -2.2 °F 67% 30.22 in 1.2 mi Calm Calm - 0.00 in Snow Light Snow
12:24 PM 6.8 °F - -2.2 °F 67% 30.22 in 1.5 mi Calm Calm - 0.00 in Snow Light Snow
12:38 PM 6.8 °F - -0.4 °F 72% 30.21 in 1.0 mi Calm Calm - 0.00 in Snow Light Snow
12:53 PM 3.9 °F - -2.0 °F 76% 30.61 in 1.2 mi Calm Calm - 0.00 in Snow Light Snow
1:18 PM 5.0 °F - -0.4 °F 78% 30.21 in 1.0 mi Calm Calm - 0.00 in Snow Light Snow
1:26 PM 3.2 °F - -2.2 °F 78% 30.21 in 1.2 mi Calm Calm - 0.00 in Snow Light Snow
1:33 PM 3.2 °F -6.2 °F -2.2 °F 78% 30.20 in 1.8 mi SSE 4.6 mph - 0.00 in Snow Light Snow
1:38 PM 3.2 °F - -2.2 °F 78% 30.21 in 3.0 mi Calm Calm - 0.00 in   Haze
1:49 PM 5.0 °F - -2.2 °F 72% 30.22 in 10.0 mi Calm Calm - 0.00 in   Scattered Clouds
1:53 PM 5.0 °F - -0.9 °F 76% 30.60 in 10.0 mi Calm Calm - 0.00 in   Partly Cloudy
2:53 PM 1.9 °F - -2.9 °F 80% 30.59 in 10.0 mi Calm Calm - N/A   Scattered Clouds
3:53 PM 3.0 °F - -2.9 °F 76% 30.57 in 10.0 mi Calm Calm - N/A   Clear
4:53 PM -5.1 °F - -9.0 °F 83% 30.59 in 10.0 mi Calm Calm - N/A   Clear
5:53 PM -8.0 °F - -11.0 °F 86% 30.61 in 10.0 mi Calm Calm - N/A   Scattered Clouds
6:53 PM -6.0 °F - -9.9 °F 83% 30.61 in 10.0 mi Calm Calm - N/A   Mostly Cloudy
7:53 PM -0.9 °F - -6.0 °F 79% 30.60 in 10.0 mi Calm Calm - N/A   Overcast
8:53 PM 1.9 °F - -2.9 °F 80% 30.60 in 10.0 mi Calm Calm - N/A   Overcast
9:53 PM 3.9 °F - -2.0 °F 76% 30.59 in 9.0 mi Calm Calm - 0.00 in   Overcast
10:09 PM 3.2 °F - -2.2 °F 78% 30.26 in 2.5 mi Calm Calm - 0.00 in Snow Light Snow
10:53 PM 5.0 °F - -0.9 °F 76% 30.58 in 2.5 mi Calm Calm - 0.00 in Snow Light Snow
11:08 PM 6.8 °F - -0.4 °F 72% 30.25 in 3.0 mi Calm Calm - 0.00 in Snow Light Snow
11:15 PM 5.0 °F - -0.4 °F 78% 30.25 in 2.5 mi Calm Calm - 0.00 in Snow Light Snow
11:48 PM 6.8 °F - 1.4 °F 79% 30.25 in 2.5 mi Calm Calm - 0.00 in Snow Light Snow
11:53 PM 6.1 °F - -0.0 °F 76% 30.56 in 3.0 mi Calm Calm - 0.00 in Snow Light Snow